{"data":{"norad_id":60937,"intl_designator":"2024-155P","name":"STARLINK-32259","alt_names":[],"object_type":"PAYLOAD","status":"ACTIVE","operator":null,"country":"US","launch_date":"2024-08-31","launch_site_code":"AFWTR","launch_vehicle":null,"mission":null,"orbit_class":"UNKNOWN","rcs_meters":null,"size_class":null,"mass_kg":null,"dimensions":null,"purposes":["comms"],"wikipedia_slug":null,"has_3d_model":false,"image_url":null,"decayed_at":null,"tle_current":{"epoch":"2026-05-25T03:23:35.995776Z","epoch_age_seconds":58832,"freshness":"FRESH","line1":"1 60937U 24155P   26145.14138884  .00001216  00000+0  53188-4 0  9995","line2":"2 60937  53.1591 134.7235 0001415  86.2241 273.8922 15.30195547 98044","mean_motion":15.30195547,"eccentricity":0.0001415,"inclination_deg":53.1591,"raan_deg":134.7235,"arg_perigee_deg":86.2241,"mean_anomaly_deg":273.8922,"bstar":5.3188e-5,"rev_number":9804,"period_min":94.105619561053,"perigee_km":474.25861410772,"apogee_km":476.1981165061,"semimajor_km":6853.3653653069,"source":"CELESTRAK","updated_at":"2026-05-25T13:38:19.320113Z"}}}